Big Rapids, MI

11:21 AM EDT on August 24, 2016 (GMT -0400)
Roben-Hood

Weather History for KRQB - October, 2012

Change the Weather History Date:

Wednesday, October 10, 2012

  Actual Average Record
Temperature  
Mean Temperature 38 °F -  
Max Temperature 43 °F 58 °F 78 °F (1973)
Min Temperature 31 °F 36 °F 26 °F (2000)
Degree Days  
Heating Degree Days 28    
Moisture  
Dew Point 32 °F    
Average Humidity 74    
Maximum Humidity 96    
Minimum Humidity 46    
Precipitation  
Precipitation 0.00 in - - ()
Sea Level Pressure  
Sea Level Pressure 29.92 in    
Wind  
Wind Speed 9 mph (West)    
Max Wind Speed 23 mph    
Max Gust Speed 28 mph    
Visibility 10 miles    
Events Rain    
Averages and records for this station are not official NWS values.
T = Trace of Precipitation, MM = Missing Value Source: NWS Daily Summary

Daily Weather History Graph

Daily Weather History Graph

Search for Another Location

Airport or City:

Trip Planner

Search our weather history database for the weather conditions in past years. The results will help you decide how hot, cold, wet, or windy it might be!

Date:

Astronomy

Oct. 10, 2012 Rise Set
Actual Time 7:50 AM EDT 7:06 PM EDT
Civil Twilight 7:21 AM EDT 7:34 PM EDT
Nautical Twilight 6:48 AM EDT 8:08 PM EDT
Astronomical Twilight 6:15 AM EDT 8:41 PM EDT
Moon 2:16 AM EDT (10/10) 4:16 PM EDT (10/10)
Length of Visible Light 12h 12m
Length of Day
11h 15m
Waning Crescent, 27% of the Moon is Illuminated
Oct 10
Waning Crescent
Oct 15
New
Oct 21
First Quarter
Oct 29
Full
Nov 6
Last Quarter

Hourly Weather History & Observations

Time (EDT) Temp. Windchill Dew Point Humidity Pressure Visibility Wind Dir Wind Speed Gust Speed Precip Events Conditions
12:15 AM 42.3 °F 35.9 °F 39.2 °F 89% 29.81 in 5.0 mi WNW 11.5 mph - N/A Rain Light Rain
12:35 AM 41.9 °F 35.9 °F 38.8 °F 89% 29.80 in 10.0 mi WNW 10.4 mph - N/A Rain Light Rain
12:55 AM 41.4 °F 36.2 °F 39.2 °F 92% 29.80 in 5.0 mi NW 8.1 mph - N/A   Overcast
1:15 AM 40.6 °F 33.8 °F 37.9 °F 90% 29.81 in 7.0 mi WNW 11.5 mph - N/A   Unknown
1:35 AM 40.1 °F 34.1 °F 37.8 °F 91% 29.81 in 5.0 mi West 9.2 mph - N/A   Overcast
1:55 AM 39.4 °F 37.2 °F 37.4 °F 93% 29.80 in 5.0 mi West 3.5 mph - N/A   Unknown
2:15 AM 39.2 °F 35.0 °F 37.2 °F 93% 29.79 in 10.0 mi SSW 5.8 mph - N/A Rain Light Rain
2:35 AM 39.2 °F 35.0 °F 37.4 °F 93% 29.80 in 5.0 mi SSW 5.8 mph - N/A Rain Light Rain
2:55 AM 39.2 °F 35.0 °F 37.4 °F 93% 29.80 in 10.0 mi SSW 5.8 mph - N/A   Light Drizzle
3:14 AM 39.2 °F 35.9 °F 37.6 °F 94% 29.79 in 10.0 mi SSW 4.6 mph - N/A   Overcast
3:35 AM 39.2 °F 35.0 °F 37.6 °F 94% 29.79 in 10.0 mi SSW 5.8 mph - N/A   Overcast
3:55 AM 39.2 °F 35.0 °F 37.8 °F 95% 29.79 in 10.0 mi SW 5.8 mph - N/A   Overcast
4:15 AM 39.2 °F 34.2 °F 37.6 °F 94% 29.79 in 10.0 mi SW 6.9 mph - N/A   Overcast
4:35 AM 39.2 °F 35.9 °F 37.8 °F 95% 29.79 in 10.0 mi SW 4.6 mph - N/A   Overcast
4:55 AM 39.2 °F 37.0 °F 37.6 °F 94% 29.79 in 10.0 mi SW 3.5 mph - N/A   Overcast
5:14 AM 38.7 °F 35.2 °F 37.4 °F 95% 29.80 in 10.0 mi WSW 4.6 mph - N/A   Overcast
5:35 AM 38.7 °F 36.3 °F 37.4 °F 95% 29.80 in 10.0 mi WSW 3.5 mph - N/A   Overcast
5:55 AM 38.3 °F 34.8 °F 37.2 °F 96% 29.80 in 10.0 mi WSW 4.6 mph - N/A   Scattered Clouds
6:14 AM 38.7 °F 36.3 °F 37.6 °F 96% 29.81 in 10.0 mi SW 3.5 mph - N/A   Mostly Cloudy
6:35 AM 38.8 °F 36.5 °F 37.8 °F 96% 29.81 in 10.0 mi SW 3.5 mph - N/A   Overcast
6:55 AM 39.4 °F 35.2 °F 38.3 °F 96% 29.82 in 10.0 mi West 5.8 mph - N/A   Overcast
7:14 AM 40.1 °F 34.7 °F 37.9 °F 92% 29.83 in 10.0 mi West 8.1 mph - N/A   Scattered Clouds
7:35 AM 39.4 °F 36.1 °F 37.4 °F 93% 29.83 in 10.0 mi West 4.6 mph - N/A   Clear
7:55 AM 38.3 °F 34.8 °F 36.7 °F 94% 29.83 in 10.0 mi West 4.6 mph - N/A   Scattered Clouds
8:14 AM 39.2 °F 35.0 °F 37.2 °F 93% 29.84 in 10.0 mi West 5.8 mph - N/A   Mostly Cloudy
8:55 AM 40.3 °F 34.9 °F 37.4 °F 89% 29.86 in 10.0 mi WNW 8.1 mph - N/A   Scattered Clouds
9:35 AM 42.1 °F 36.6 °F 37.8 °F 85% 29.87 in 10.0 mi West 9.2 mph 16.1 mph N/A   Scattered Clouds
9:55 AM 42.8 °F 35.1 °F 35.8 °F 76% 29.88 in 10.0 mi WNW 16.1 mph 19.6 mph N/A   Overcast
10:14 AM 42.6 °F 34.6 °F 34.7 °F 74% 29.88 in 10.0 mi WNW 17.3 mph 21.9 mph N/A   Overcast
10:35 AM 42.1 °F 34.2 °F 34.2 °F 74% 29.89 in 10.0 mi West 16.1 mph - N/A   Overcast
10:55 AM 42.1 °F 35.2 °F 34.2 °F 74% 29.89 in 10.0 mi West 12.7 mph - N/A   Overcast
11:14 AM 42.1 °F 34.5 °F 33.8 °F 72% 29.90 in 10.0 mi West 15.0 mph - N/A   Overcast
11:35 AM 41.9 °F 35.4 °F 33.4 °F 72% 29.91 in 10.0 mi West 11.5 mph 17.3 mph N/A   Overcast
11:55 AM 43.3 °F 35.8 °F 34.0 °F 70% 29.91 in 10.0 mi West 16.1 mph 21.9 mph N/A   Overcast
12:14 PM 43.7 °F 36.0 °F 33.6 °F 68% 29.92 in 10.0 mi WNW 17.3 mph 21.9 mph N/A   Overcast
12:55 PM 43.0 °F 34.8 °F 31.8 °F 65% 29.94 in 10.0 mi WNW 18.4 mph 27.6 mph N/A   Overcast
1:14 PM 43.9 °F 35.0 °F 31.3 °F 61% 29.94 in 10.0 mi WNW 23.0 mph 26.5 mph N/A   Overcast
1:35 PM 42.8 °F 35.8 °F 29.8 °F 60% 29.94 in 10.0 mi West 13.8 mph 25.3 mph N/A   Overcast
1:55 PM 43.3 °F 36.5 °F 29.5 °F 58% 29.94 in 10.0 mi West 13.8 mph 26.5 mph N/A   Overcast
2:14 PM 43.5 °F 36.4 °F 27.9 °F 54% 29.94 in 10.0 mi West 15.0 mph 21.9 mph N/A   Overcast
2:35 PM 43.9 °F 35.4 °F 24.3 °F 46% 29.95 in 10.0 mi WNW 20.7 mph 27.6 mph N/A   Overcast
2:54 PM 43.5 °F 35.2 °F 24.4 °F 47% 29.96 in 10.0 mi WNW 19.6 mph 26.5 mph N/A   Overcast
3:15 PM 42.8 °F 35.1 °F 24.1 °F 48% 29.96 in 10.0 mi WNW 16.1 mph 23.0 mph N/A   Overcast
3:35 PM 42.8 °F 35.4 °F 24.4 °F 48% 29.98 in 10.0 mi West 15.0 mph 25.3 mph N/A   Overcast
3:54 PM 42.6 °F 34.6 °F 23.2 °F 46% 29.98 in 10.0 mi West 17.3 mph 23.0 mph N/A   Overcast
4:15 PM 42.1 °F 34.2 °F 24.3 °F 49% 29.99 in 10.0 mi WNW 16.1 mph 24.2 mph N/A   Overcast
4:35 PM 42.3 °F 34.4 °F 24.8 °F 50% 29.99 in 10.0 mi WNW 16.1 mph 20.7 mph N/A   Overcast
4:54 PM 42.3 °F 33.1 °F 25.2 °F 51% 29.99 in 10.0 mi WNW 21.9 mph 27.6 mph N/A   Overcast
5:15 PM 42.1 °F 34.5 °F 24.4 °F 50% 30.00 in 10.0 mi WNW 15.0 mph 21.9 mph N/A   Overcast
5:35 PM 42.3 °F 35.5 °F 25.2 °F 51% 30.01 in 10.0 mi WNW 12.7 mph 19.6 mph N/A   Overcast
5:54 PM 42.3 °F 35.9 °F 24.1 °F 49% 30.01 in 10.0 mi WNW 11.5 mph - N/A   Overcast
6:15 PM 42.1 °F 36.6 °F 24.4 °F 50% 30.02 in 10.0 mi WNW 9.2 mph 20.7 mph N/A   Overcast
6:34 PM 41.9 °F 36.3 °F 23.9 °F 49% 30.03 in 10.0 mi West 9.2 mph - N/A   Overcast
6:55 PM 41.5 °F 37.1 °F 24.1 °F 50% 30.04 in 10.0 mi West 6.9 mph - N/A   Overcast
7:15 PM 41.0 °F - 24.4 °F 52% 30.04 in 10.0 mi Calm Calm - N/A   Overcast
7:34 PM 40.8 °F 38.8 °F 24.4 °F 52% 30.05 in 10.0 mi WSW 3.5 mph - N/A   Overcast
7:55 PM 39.6 °F 37.4 °F 26.2 °F 59% 30.06 in 10.0 mi WSW 3.5 mph - N/A   Overcast
8:15 PM 39.6 °F 36.3 °F 25.5 °F 57% 30.06 in 10.0 mi WSW 4.6 mph - N/A   Scattered Clouds
8:34 PM 38.3 °F 34.8 °F 26.8 °F 63% 30.07 in 10.0 mi SW 4.6 mph - N/A   Mostly Cloudy
8:55 PM 39.2 °F 37.0 °F 25.5 °F 58% 30.07 in 10.0 mi West 3.5 mph - N/A   Mostly Cloudy
9:15 PM 38.7 °F 36.3 °F 25.7 °F 60% 30.08 in 10.0 mi WSW 3.5 mph - N/A   Mostly Cloudy
9:34 PM 36.9 °F 34.3 °F 27.0 °F 67% 30.08 in 10.0 mi WSW 3.5 mph - N/A   Mostly Cloudy
9:55 PM 36.3 °F - 27.3 °F 70% 30.08 in 10.0 mi Calm Calm - N/A   Mostly Cloudy
10:15 PM 34.5 °F - 28.0 °F 77% 30.09 in 10.0 mi Calm Calm - N/A   Mostly Cloudy
10:34 PM 32.9 °F - 28.4 °F 84% 30.09 in 10.0 mi Calm Calm - N/A   Mostly Cloudy
10:55 PM 32.7 °F - 27.7 °F 82% 30.09 in 10.0 mi Calm Calm - N/A   Scattered Clouds
11:15 PM 32.2 °F - 27.9 °F 84% 30.10 in 10.0 mi Calm Calm - N/A   Clear
11:34 PM 32.0 °F - 27.5 °F 83% 30.10 in 10.0 mi Calm Calm - N/A   Clear
11:55 PM 31.6 °F - 28.6 °F 88% 30.10 in 10.0 mi Calm Calm - N/A   Clear